Total_Precipitation_Accumulation
0.06 0.07 0.15 0.11 0.08 0.11 0.14 0.14 0.13 0.12 0.09 0.09 0.08 0.06 0.04 0.04 0.04 0.05 0.05 0.07 0.09 0.12 0.14 0.18 0.19 0.22 0.24 0.22 0.24 0.21 0.21 0.20 0.26 0.35 0.39 0.38 0.40 0.54 0.78 0.85 0.88 0.58 0.49
0.02 0.04 0.11 0.09 0.08 0.10 0.13 0.14 0.15 0.15 0.12 0.10 0.08 0.07 0.06 0.06 0.05 0.07 0.09 0.10 0.10 0.13 0.14 0.16 0.18 0.18 0.19 0.18 0.18 0.17 0.22 0.28 0.39 0.49 0.48 0.41 0.41 0.56 0.71 0.72 0.88 0.54 0.45
0.04 0.04 0.08 0.10 0.09 0.11 0.13 0.14 0.16 0.17 0.15 0.11 0.10 0.10 0.10 0.08 0.07 0.08 0.10 0.10 0.11 0.12 0.12 0.15 0.15 0.14 0.15 0.14 0.14 0.18 0.26 0.37 0.55 0.66 0.78 0.52 0.33 0.55 0.65 0.65 0.59 0.48 0.46
0.07 0.04 0.04 0.08 0.11 0.11 0.12 0.14 0.16 0.15 0.14 0.13 0.15 0.15 0.14 0.09 0.09 0.09 0.10 0.11 0.11 0.11 0.11 0.11 0.12 0.11 0.11 0.11 0.15 0.22 0.32 0.45 0.61 0.87 1.02 0.53 0.29 0.38 0.48 0.50 0.45 0.43 0.40
0.08 0.05 0.06 0.08 0.09 0.11 0.12 0.14 0.16 0.16 0.14 0.15 0.19 0.20 0.18 0.12 0.12 0.12 0.12 0.10 0.11 0.11 0.10 0.08 0.09 0.09 0.09 0.11 0.16 0.25 0.33 0.44 0.65 0.81 0.64 0.57 0.55 0.40 0.38 0.43 0.42 0.41 0.34
0.10 0.07 0.09 0.10 0.10 0.11 0.12 0.14 0.19 0.22 0.18 0.18 0.19 0.19 0.19 0.16 0.18 0.16 0.11 0.10 0.11 0.12 0.11 0.09 0.09 0.09 0.09 0.12 0.17 0.24 0.33 0.49 0.64 0.51 0.42 0.42 0.45 0.42 0.39 0.52 0.55 0.50 0.42
0.15 0.09 0.11 0.14 0.13 0.12 0.11 0.13 0.16 0.19 0.20 0.23 0.22 0.18 0.16 0.14 0.13 0.13 0.11 0.11 0.11 0.11 0.10 0.09 0.10 0.12 0.12 0.15 0.19 0.25 0.38 0.55 0.54 0.42 0.41 0.47 0.47 0.38 0.48 0.69 0.83 0.74 0.60
0.26 0.17 0.17 0.19 0.17 0.15 0.14 0.15 0.15 0.16 0.16 0.17 0.17 0.16 0.13 0.11 0.15 0.17 0.15 0.12 0.11 0.10 0.10 0.10 0.10 0.13 0.16 0.18 0.22 0.25 0.35 0.41 0.33 0.34 0.34 0.42 0.35 0.34 0.58 0.80 0.95 0.94 0.84
0.42 0.27 0.24 0.23 0.20 0.21 0.24 0.21 0.20 0.19 0.19 0.20 0.20 0.19 0.17 0.16 0.17 0.19 0.21 0.18 0.17 0.17 0.17 0.15 0.12 0.13 0.16 0.19 0.22 0.26 0.33 0.41 0.39 0.44 0.42 0.42 0.35 0.52 0.89 1.01 1.00 1.02 0.98
0.81 0.55 0.40 0.31 0.30 0.25 0.23 0.25 0.25 0.25 0.24 0.22 0.21 0.21 0.22 0.22 0.23 0.25 0.25 0.25 0.28 0.30 0.31 0.25 0.22 0.21 0.22 0.22 0.25 0.30 0.35 0.41 0.51 0.53 0.50 0.38 0.42 0.69 1.04 1.18 1.19 1.15 1.06
0.98 0.76 0.61 0.46 0.39 0.34 0.28 0.28 0.34 0.35 0.34 0.31 0.33 0.31 0.34 0.40 0.45 0.51 0.47 0.53 0.52 0.52 0.53 0.48 0.45 0.45 0.42 0.33 0.38 0.47 0.46 0.51 0.62 0.59 0.48 0.38 0.52 0.80 1.10 1.24 1.26 1.24 1.14
1.14 0.97 0.83 0.65 0.50 0.45 0.43 0.52 0.63 0.56 0.55 0.54 0.66 0.68 0.75 0.90 0.89 0.64 0.69 0.92 1.02 1.08 1.03 0.99 0.98 0.83 0.72 0.64 0.99 1.18 0.65 0.67 0.73 0.66 0.58 0.58 0.80 1.08 1.35 1.31 1.23 1.25 1.15
1.53 1.31 1.09 0.92 0.75 0.66 0.78 0.71 0.76 0.87 0.93 0.92 0.95 1.00 1.10 1.09 0.93 0.79 0.90 1.14 1.38 1.46 1.35 1.56 1.60 1.23 1.28 1.47 1.48 1.35 0.95 1.09 1.09 0.99 0.87 0.99 1.20 1.49 1.88 1.70 1.39 1.26 1.18
1.74 1.62 1.56 1.33 1.15 1.19 1.13 0.88 0.82 0.86 0.95 1.06 1.26 1.27 1.33 1.47 1.38 1.31 1.34 1.40 1.56 1.73 1.93 1.95 2.06 1.92 1.86 1.79 1.77 1.64 1.42 1.45 1.43 1.54 1.49 1.39 1.45 1.68 2.14 2.12 1.70 1.42 1.25
1.91 1.87 1.84 1.78 1.62 1.66 1.43 1.25 1.10 1.17 1.20 1.25 1.34 1.46 1.46 1.66 1.78 1.76 1.69 1.65 1.63 1.74 1.89 2.01 2.07 2.37 2.49 2.18 1.81 1.69 1.66 1.72 1.66 1.67 1.62 1.57 1.49 1.59 1.93 2.16 2.03 1.81 1.53
2.31 2.32 2.14 2.07 2.07 2.02 1.89 1.85 1.75 1.54 1.54 1.52 1.49 1.49 1.54 1.72 1.91 1.99 1.89 1.85 1.73 1.72 1.87 2.03 2.19 2.61 2.61 2.44 2.01 1.84 1.76 1.72 1.58 1.52 1.61 1.81 1.64 1.52 1.62 1.87 2.08 2.07 1.94
2.72 2.71 2.70 2.65 2.77 2.68 2.48 2.35 2.16 1.95 1.82 1.77 1.81 1.83 1.74 1.77 1.88 1.88 1.72 1.66 1.70 1.83 1.96 1.99 2.18 2.46 2.16 2.13 1.91 1.84 1.66 1.49 1.33 1.29 1.46 1.65 1.54 1.50 1.60 1.71 1.87 1.95 2.04
2.91 3.02 3.17 3.22 3.17 3.00 2.91 2.81 2.60 2.37 2.16 2.01 1.94 1.99 1.85 1.77 1.78 1.90 1.71 1.59 1.90 2.00 2.06 2.20 2.30 2.30 2.19 2.15 1.94 1.71 1.53 1.43 1.18 1.09 1.12 1.19 1.33 1.20 1.45 1.65 1.69 1.73 1.93
3.33 3.55 3.69 3.69 3.52 3.25 3.17 3.09 2.94 2.76 2.42 2.14 1.99 1.92 1.77 1.73 1.84 2.07 1.98 2.03 2.22 2.26 2.23 2.14 2.36 2.33 2.20 2.16 1.96 1.67 1.37 1.23 1.07 0.95 0.88 0.83 0.94 1.02 1.10 1.26 1.40 1.48 1.82
3.80 4.13 3.93 3.83 3.92 3.71 3.55 3.35 3.02 2.57 2.24 2.13 2.06 1.88 1.82 1.83 1.95 2.23 2.05 2.02 2.17 2.25 2.22 2.18 2.13 2.15 1.96 1.95 1.85 1.55 1.23 0.95 0.88 0.77 0.65 0.64 0.68 0.67 0.80 0.97 1.20 1.10 1.42
3.75 4.14 4.28 4.23 4.08 3.76 3.35 3.02 2.76 2.54 2.39 2.17 2.01 1.91 1.83 1.77 1.85 2.11 1.99 2.05 2.06 2.01 2.02 2.07 2.06 1.90 1.59 1.79 1.82 1.41 1.02 0.81 0.77 0.57 0.53 0.54 0.53 0.55 0.69 0.89 1.08 1.08 1.05
3.38 3.84 4.11 4.24 4.09 3.65 3.14 2.82 2.68 2.65 2.35 2.07 2.02 1.99 1.86 1.92 1.89 1.91 1.95 1.93 1.94 1.96 1.87 1.83 1.89 1.71 1.42 1.56 1.65 1.57 1.06 0.81 0.66 0.51 0.56 0.62 0.65 0.70 0.73 0.80 0.94 1.06 1.08
2.96 3.21 3.33 3.45 3.38 3.10 2.91 2.79 2.70 2.67 2.36 2.24 2.26 2.22 2.09 2.08 2.02 1.99 1.91 1.79 1.65 1.58 1.52 1.56 1.63 1.60 1.43 1.40 1.58 1.75 1.38 1.00 0.87 0.67 0.65 0.67 0.76 0.85 0.82 0.84 0.90 1.04 1.13
2.54 2.82 3.02 3.05 2.91 2.66 2.56 2.51 2.41 2.25 2.18 2.32 2.52 2.42 2.16 1.97 1.82 1.62 1.47 1.46 1.42 1.37 1.29 1.20 1.29 1.33 1.25 1.20 1.31 1.44 1.51 1.48 1.37 0.90 0.64 0.61 0.72 0.82 0.89 0.83 0.78 0.87 1.04
2.11 2.34 2.56 2.73 2.73 2.53 2.40 2.32 2.31 2.19 2.15 2.16 2.10 2.01 1.85 1.65 1.43 1.20 1.11 1.12 1.11 1.09 1.05 1.00 1.00 0.99 1.01 1.02 1.14 1.29 1.38 1.44 1.43 1.30 0.92 0.85 0.86 0.79 0.81 0.81 0.84 0.85 0.89
1.67 1.75 1.83 2.02 2.18 2.19 2.12 2.10 2.05 1.90 1.80 1.70 1.51 1.41 1.31 1.20 1.02 0.85 0.77 0.82 0.88 0.94 0.92 0.88 0.88 0.86 0.91 1.02 1.04 1.13 1.27 1.25 1.25 1.34 1.13 1.01 0.96 0.84 0.83 0.86 0.87 0.94 0.93